Gypsum, CO

9:42 AM MST on February 06, 2016 (GMT -0700)
Eagle County Regional

Weather History for KEGE - March, 2014

Change the Weather History Date:

Monday, March 10, 2014

  Actual Average Record
Temperature  
Mean Temperature 42 °F -  
Max Temperature 60 °F 48 °F 69 °F (1972)
Min Temperature 23 °F 21 °F -5 °F (1964)
Degree Days  
Heating Degree Days 24    
Moisture  
Dew Point 19 °F    
Average Humidity 59    
Maximum Humidity 86    
Minimum Humidity 12    
Precipitation  
Precipitation 0.00 in - - ()
Sea Level Pressure  
Sea Level Pressure 30.13 in    
Wind  
Wind Speed 2 mph (South)    
Max Wind Speed 20 mph    
Max Gust Speed 29 mph    
Visibility 10 miles    
Events      
Averages and records for this station are not official NWS values.
T = Trace of Precipitation, MM = Missing Value Source: NWS Daily Summary

Daily Weather History Graph

Daily Weather History Graph

Search for Another Location

Airport or City:

Trip Planner

Search our weather history database for the weather conditions in past years. The results will help you decide how hot, cold, wet, or windy it might be!

Date:

Astronomy

Mar. 10, 2014 Rise Set
Actual Time 7:26 AM MDT 7:09 PM MDT
Civil Twilight 7:00 AM MDT 7:36 PM MDT
Nautical Twilight 6:28 AM MDT 8:07 PM MDT
Astronomical Twilight 5:57 AM MDT 8:39 PM MDT
Moon 1:56 PM MDT (3/10) 3:40 AM MDT (3/10)
Length of Visible Light 12h 36m
Length of Day
11h 42m
Waxing Gibbous, 70% of the Moon is Illuminated
Mar 10
Waxing Gibbous
Mar 16
Full
Mar 23
Last Quarter
Mar 30
New
Apr 7
First Quarter

Hourly Weather History & Observations

Time (MDT) Temp. Windchill Dew Point Humidity Pressure Visibility Wind Dir Wind Speed Gust Speed Precip Events Conditions
12:15 AM 30.2 °F - 21.2 °F 69% 30.30 in 10.0 mi Calm Calm - N/A   Clear
12:35 AM 30.2 °F - 21.2 °F 69% 30.30 in 10.0 mi Calm Calm - N/A   Clear
12:55 AM 28.4 °F 24.6 °F 21.2 °F 74% 30.30 in 10.0 mi SSE 3.5 mph - N/A   Clear
1:15 AM 28.4 °F - 21.2 °F 74% 30.30 in 10.0 mi Calm Calm - N/A   Clear
1:35 AM 28.4 °F - 21.2 °F 74% 30.30 in 10.0 mi Calm Calm - N/A   Clear
1:55 AM 28.4 °F 24.6 °F 21.2 °F 74% 30.30 in 10.0 mi ESE 3.5 mph - N/A   Clear
2:15 AM 26.6 °F - 21.2 °F 80% 30.29 in 10.0 mi Calm Calm - N/A   Clear
2:35 AM 26.6 °F - 21.2 °F 80% 30.28 in 10.0 mi Calm Calm - N/A   Clear
2:55 AM 28.4 °F - 21.2 °F 74% 30.28 in 10.0 mi Calm Calm - N/A   Clear
3:15 AM 28.4 °F - 21.2 °F 74% 30.27 in 10.0 mi Calm Calm - N/A   Clear
3:35 AM 26.6 °F - 21.2 °F 80% 30.26 in 10.0 mi Calm Calm - N/A   Clear
3:55 AM 26.6 °F - 19.4 °F 74% 30.26 in 10.0 mi Calm Calm - N/A   Clear
4:15 AM 26.6 °F - 19.4 °F 74% 30.26 in 10.0 mi Calm Calm - N/A   Clear
4:35 AM 26.6 °F - 19.4 °F 74% 30.26 in 10.0 mi Calm Calm - N/A   Clear
4:55 AM 26.6 °F - 19.4 °F 74% 30.26 in 10.0 mi Calm Calm - N/A   Clear
5:15 AM 24.8 °F - 21.2 °F 86% 30.26 in 10.0 mi Calm Calm - N/A   Clear
5:35 AM 24.8 °F - 19.4 °F 80% 30.27 in 10.0 mi Calm Calm - N/A   Clear
5:55 AM 24.8 °F - 19.4 °F 80% 30.26 in 10.0 mi Calm Calm - N/A   Clear
6:15 AM 24.8 °F - 19.4 °F 80% 30.26 in 10.0 mi Calm Calm - N/A   Clear
6:35 AM 24.8 °F - 21.2 °F 86% 30.25 in 10.0 mi Calm Calm - N/A   Clear
6:50 AM 24.8 °F - 19.4 °F 80% 30.25 in 10.0 mi Calm Calm - N/A   Partly Cloudy
7:50 AM 23.0 °F - 19.4 °F 86% 30.24 in 10.0 mi Calm Calm - N/A   Partly Cloudy
8:50 AM 26.6 °F - 21.2 °F 80% 30.24 in 10.0 mi Calm Calm - N/A   Partly Cloudy
9:50 AM 30.2 °F - 21.2 °F 69% 30.21 in 10.0 mi Calm Calm - N/A   Partly Cloudy
10:50 AM 37.4 °F - 17.6 °F 45% 30.17 in 10.0 mi Calm Calm - N/A   Partly Cloudy
11:50 AM 42.8 °F - 17.6 °F 36% 30.12 in 10.0 mi Calm Calm - N/A   Partly Cloudy
12:50 PM 48.2 °F - 15.8 °F 27% 30.07 in 10.0 mi Calm Calm - N/A   Scattered Clouds
1:50 PM 51.8 °F - 17.6 °F 26% - 10.0 mi Calm Calm - N/A   Scattered Clouds
2:50 PM 59.0 °F - 15.8 °F 19% 29.96 in 10.0 mi SW 15.0 mph 19.6 mph N/A   Partly Cloudy
3:50 PM 60.8 °F - 14.0 °F 16% 29.92 in 10.0 mi SSW 15.0 mph 23.0 mph N/A   Scattered Clouds
4:50 PM 60.8 °F - 6.8 °F 12% 29.88 in 10.0 mi SW 19.6 mph 28.8 mph N/A   Partly Cloudy
5:50 PM 60.8 °F - 6.8 °F 12% 29.85 in 10.0 mi WSW 15.0 mph - N/A   Partly Cloudy
6:50 PM 53.6 °F - 10.4 °F 18% 29.85 in 10.0 mi WSW 5.8 mph - N/A   Scattered Clouds
7:50 PM 51.8 °F - 12.2 °F 21% 29.84 in 10.0 mi South 5.8 mph - N/A   Clear
8:50 PM 46.4 °F - 17.6 °F 32% 29.85 in 10.0 mi Calm Calm - N/A   Clear
9:50 PM 39.2 °F 34.2 °F 23.0 °F 52% 29.84 in 10.0 mi Variable 6.9 mph - N/A   Partly Cloudy
10:50 PM 41.0 °F 36.4 °F 23.0 °F 49% 29.84 in 10.0 mi Variable 6.9 mph - N/A   Clear
11:15 PM 41.0 °F 34.3 °F 24.8 °F 53% 29.82 in 10.0 mi ENE 11.5 mph - N/A   Clear
11:35 PM 41.0 °F 35.8 °F 24.8 °F 53% 29.81 in 10.0 mi East 8.1 mph - N/A   Clear
11:55 PM 42.8 °F 39.3 °F 21.2 °F 42% 29.81 in 10.0 mi ENE 5.8 mph - N/A   Clear